#timestamp,LO_Frequency,Hit,StdDev 
1612051215.3,286046995.3,Y
1612051235.2,286046997.1,P
1612051255.9,286046999.5,N
1612051275.7,286046997.7,N
1612051295.6,286046996.6,Y
1612051315.4,286046999.1,P
1612051335.3,286047000.2,N
1612051355.1,286047000.3,N
1612051356.0,286047000.3,N
1612051375.8,286047000.8,N
1612051395.7,286046998.1,N
1612051415.5,286046998.7,N
1612051435.3,286046998.9,N
1612051455.2,286046998.2,N
1612051475.0,286046999.3,N
1612051475.9,286046999.3,N
1612051495.8,286046998.5,N
1612051515.6,286046999.4,N
1612051535.4,286046999.1,N
1612051555.3,286047001.2,N
1612051575.1,286047000.0,N
1612051595.9,286047000.4,N
1612051615.7,286046998.6,N
1612051635.5,286046999.1,N
1612051655.4,286046998.8,N
1612051675.2,286046996.7,Y
1612051695.0,286046999.0,P
1612051696.0,286046999.0,P
1612051715.8,286046998.8,P
1612051735.6,286046998.9,Y
1612051755.5,286046996.6,P
1612051775.3,286046997.0,N
1612051795.1,286046998.7,N
1612051815.9,286046999.9,N
1612051835.7,286047004.1,Y
1612051855.6,286047005.6,P
1612051875.4,286047002.9,N
1612051895.2,286047004.4,N
1612051915.1,286047000.4,N
1612051916.0,286047000.4,N
1612051935.8,286047000.5,N
1612051955.7,286046999.9,N
1612051975.5,286047000.4,N
1612051995.3,286047000.4,N
1612052015.2,286046998.2,N
1612052035.0,286047000.3,N
1612052035.9,286047000.3,N
1612052055.7,286047000.5,N
1612052075.6,286047000.5,N
1612052095.4,286047000.5,N
1612052115.3,286047000.9,N
1612052135.1,286046998.6,N
1612052136.0,286046998.6,N
1612052155.8,286046998.6,N
1612052175.7,286046998.6,N
1612052195.5,286046998.3,N
1612052215.3,286046998.5,N
1612052235.2,286047001.2,N
1612052255.0,286046998.4,N
1612052255.9,286046998.4,N
1612052275.8,286046998.2,N
1612052295.6,286047009.5,Y
1612052315.4,286047005.9,P
1612052335.3,286047007.5,N
1612052355.1,286047008.8,N
1612052375.9,286047006.5,N
1612052395.7,286047007.0,N
1612052415.5,286047007.9,N
1612052435.4,286047009.8,Y
1612052455.2,286047003.1,P
1612052475.0,286047004.4,N
1612052476.0,286047004.4,P
1612052495.8,286047002.2,N
1612052515.6,286047006.5,Y
1612052535.5,286047001.8,P
1612052555.3,286046998.1,N
1612052575.1,286046999.1,N
1612052595.9,286046998.1,N
1612052615.7,286046999.3,N
1612052635.6,286046999.6,N
1612052655.4,286046999.1,N
1612052675.2,286046997.3,N
1612052695.1,286046997.8,N
1612052696.0,286046997.8,N
1612052715.8,286046997.7,N
1612052735.6,286046997.3,N
1612052755.5,286046994.9,N
1612052775.3,286046998.0,N
1612052795.2,286046996.5,N
1612052815.9,286046999.3,N
1612052835.7,286046997.8,N
1612052855.6,286046997.2,N
1612052875.4,286046997.7,N
1612052895.3,286046997.7,N
1612052915.1,286046997.4,N
1612052916.0,286046997.4,N
1612052935.8,286046995.5,N
1612052955.7,286046995.0,N
1612052975.5,286046996.5,N
1612052995.3,286046997.0,N
1612053015.2,286046998.4,N
1612053035.0,286046999.5,N
1612053035.9,286046999.5,N
1612053055.8,286046997.8,N
1612053075.6,286046995.5,Y
1612053095.4,286046997.8,P
1612053115.3,286046997.3,P
1612053135.1,286046997.4,P
1612053155.9,286046996.8,Y
1612053175.7,286047000.0,P
1612053195.5,286047002.8,N
1612053215.4,286047002.5,N
1612053235.2,286047001.9,N
1612053255.1,286047004.6,N
1612053256.0,286047004.6,N
1612053275.8,286047005.3,N
1612053295.6,286047003.2,N
1612053315.5,286047002.5,N
1612053335.3,286047010.6,Y
1612053355.1,286047003.2,P
1612053375.9,286047001.4,P
1612053395.7,286047002.2,N
1612053415.6,286047000.3,N
1612053435.4,286047000.0,N
1612053455.2,286047000.4,N
1612053475.1,286046998.1,N
1612053476.0,286046998.1,N
1612053495.8,286047000.8,N
1612053515.7,286047002.0,N
1612053535.5,286047002.1,N
1612053555.3,286047000.1,N
1612053575.2,286047000.4,N
1612053595.0,286047000.6,N
1612053595.9,286047000.6,N
1612053615.7,286047000.8,N
1612053635.6,286046998.7,N
1612053655.4,286047001.0,N
1612053675.3,286047000.3,N
1612053695.1,286047001.2,N
1612053696.0,286047001.2,N
1612053715.8,286046999.3,N
1612053735.7,286046998.4,N
1612053755.5,286047001.1,N
1612053775.3,286046998.4,N
1612053795.2,286046998.3,N
1612053815.0,286046999.0,N
1612053815.9,286046999.0,N
1612053835.8,286046999.3,N
1612053855.6,286046999.4,N
1612053875.4,286046999.0,N
1612053895.3,286046998.5,N
1612053915.1,286046999.3,N
1612053935.9,286046999.3,N
1612053955.7,286046998.8,N
1612053975.5,286046998.5,N
1612053995.4,286046998.7,N
1612054015.2,286046997.7,N
1612054035.0,286046996.7,N
1612054036.0,286046996.7,N
1612054055.8,286046997.2,N
1612054075.6,286046999.1,N
1612054095.5,286046997.0,N
1612054115.3,286046997.0,N
1612054135.1,286047004.1,Y
1612054155.9,286047005.3,P
1612054175.7,286047005.6,N
1612054195.6,286047003.2,N
1612054215.4,286047003.9,N
1612054235.2,286047004.3,N
1612054255.1,286047002.5,N
1612054256.0,286047002.5,N
1612054275.8,286047002.6,N
1612054295.7,286047006.2,Y
1612054315.5,286047001.4,P
1612054335.3,286047000.3,N
1612054355.2,286047000.6,N
1612054375.0,286047001.2,N
1612054375.9,286047001.2,N
1612054395.7,286046999.3,N
1612054415.6,286046999.3,N
1612054435.4,286046998.8,N
1612054455.3,286046997.3,N
1612054475.1,286046997.9,N
1612054495.8,286046999.5,N
1612054515.7,286046997.1,N
1612054535.5,286046997.6,N
1612054555.4,286046998.0,N
1612054575.2,286046995.3,N
1612054595.0,286046995.9,N
1612054595.9,286046995.9,N
1612054615.8,286046995.3,N
1612054635.6,286046995.9,N
1612054655.4,286046993.7,N
1612054675.3,286046995.9,N
1612054695.1,286046993.8,N
1612054715.9,286046996.0,N
1612054735.7,286046997.9,N
1612054755.5,286046995.1,N
1612054775.4,286046996.0,N
1612054795.2,286046995.2,N
